Location: Sinnemahoning State Park
(41.4031°N, 78.0230°W)
Time: 18:49:59
(UTC-05:00)

Daily predictions for brighter satellites

Satellite Brightness Start Highest point End
(mag) Time Altitude Azimuth Time Altitude Azimuth Time Altitude Azimuth
Cosmos 1420 Rocket 4.1 18:12:14 10° NNW 18:17:27 58° ENE 18:22:41 10° SSE
Cosmos 1674 Rocket 3.5 18:15:29 10° N 18:19:49 66° E 18:24:06 10° SSE
SL-16 R/B 2.2 18:14:29 10° NNW 18:20:10 68° ENE 18:25:47 10° SSE
ERS-2 3.4 18:21:36 10° ESE 18:24:31 22° ENE 18:27:26 10° NNE
Cosmos 2297 Rocket 3.0 18:20:23 10° SW 18:25:55 56° WNW 18:31:31 10° NNE
COSMOS 2455 4.1 18:23:42 10° SE 18:27:42 19° ESE 18:31:43 10° ENE
SeaSat 1 4.0 18:25:55 10° E 18:29:03 17° NE 18:32:13 10° N
Cosmos 405 3.6 18:25:54 10° SSW 18:29:22 60° W 18:32:51 10° N
Cosmos 1908 Rocket 3.7 18:25:54 10° S 18:30:13 52° E 18:34:34 10° NNE
USA 215 4.3 18:25:55 10° ENE 18:31:04 24° SE 18:36:10 10° S
MTI 3.7 18:28:19 10° NNE 18:31:32 73° ESE 18:34:43 10° S
YAOGAN 1 3.4 18:28:09 10° S 18:32:24 57° W 18:36:41 10° NNW
H-2A R/B 3.2 18:28:58 10° SE 18:32:40 42° ENE 18:36:22 10° N
Cosmos 1733 Rocket 3.8 18:29:35 10° SSW 18:33:49 57° W 18:38:06 10° N
Aureole 3 3.9 18:28:53 10° S 18:34:35 88° E 18:39:01 10° N
Cosmos 1603 4.4 18:33:49 10° N 18:38:55 34° ENE 18:43:58 10° ESE
DMSP B5D1-3 4.5 18:35:56 10° NNE 18:41:04 72° ESE 18:46:13 10° S
SJ-6B 3.8 18:40:50 10° SE 18:43:57 25° ENE 18:47:09 10° NNE
Cosmos 1891 Rocket 4.4 18:38:24 10° N 18:44:35 64° E 18:50:35 10° SSE
Cosmos 2034 Rocket 4.1 18:39:04 10° N 18:45:19 55° ENE 18:51:31 10° SSE
Meteor 1-20 Rocket 4.3 18:41:44 10° S 18:47:27 82° E 18:53:17 10° NNE
Cosmos 1812 3.6 18:43:43 10° NNW 18:47:31 55° W 18:51:18 10° S
Envisat 3.9 18:44:27 10° ESE 18:48:42 28° ENE 18:52:57 10° N
Cosmos 2263 Rocket 3.4 18:48:02 10° SE 18:51:57 20° E 18:55:41 11° ENE
OE (NEXTSAT) 4.4 18:49:43 10° WSW 18:53:16 72° SSE 18:55:48 18° ENE
CZ-2D R/B 4.1 18:53:25 10° SE 18:56:49 29° ENE 19:00:13 10° N
Cosmos 1975 Rocket 3.3 18:52:29 10° N 18:56:49 48° E 19:01:08 10° SSE
ATLAS CENTAUR R/B 3.0 18:54:12 10° N 18:57:07 18° NE 18:58:21 16° ENE
HJ-1C 3.9 18:54:33 10° SE 18:57:44 38° ENE 19:00:56 10° N
CENTAUR R/B 2.9 18:52:36 10° SW 18:58:35 68° NW 19:05:28 10° NNE
Okean 1 3.2 18:55:13 10° N 18:59:13 75° E 19:03:10 10° SSE
Cosmos 1110 Rocket 4.4 18:58:28 10° N 19:03:31 44° ENE 19:08:34 10° SE
Cosmos 1602 3.8 19:00:14 10° S 19:04:02 54° E 19:07:50 10° NNE
USA 267 4.5 19:01:04 13° ENE 19:05:32 26° NNE 19:10:46 10° NW
Cosmos 1269 Rocket 4.0 19:01:05 10° SSW 19:06:22 87° ESE 19:11:41 10° NNE
Thor Agena Rocket 3.8 19:01:38 10° NNE 19:06:25 40° E 19:11:08 10° S
Meteor 1-4 Rocket 3.0 19:03:31 10° SSE 19:06:44 35° E 19:10:02 10° NNE
USA 32 4.0 19:04:14 10° S 19:09:27 86° E 19:14:43 10° N
BREEZE-M R/B 3.5 19:07:02 10° NW 19:09:34 72° NNE 19:14:38 17° ESE
Resurs 01 Rocket 2.5 19:15:19 26° E 19:15:59 27° ENE 19:19:44 10° N
OAO 2 Rocket 4.1 19:12:47 10° WSW 19:17:24 40° S 19:19:59 22° SE
FREGAT/IRIS 3.0 19:15:21 10° S 19:18:17 64° W 19:21:14 10° NNW
Cosmos 2227 4.1 19:14:23 10° SSW 19:20:07 83° ESE 19:25:51 10° NNE
Meteor 2-4 Rocket 3.9 19:15:07 10° N 19:20:44 50° ENE 19:26:09 10° SSE
Iridium 4 Rocket 3.8 19:18:19 10° N 19:22:59 57° W 19:27:15 10° SSW
Alouette 2 Rocket 3.3 19:23:43 10° S 19:27:11 49° E 19:30:51 10° NNE
Cosmos 1536 Rocket 4.4 19:23:20 10° NNE 19:26:42 30° ENE 19:26:42 30° ENE
Cosmos 1437 Rocket 3.5 19:23:43 10° SSW 19:27:42 56° WNW 19:31:46 10° N
CZ-4C R/B 3.3 19:21:37 10° NNW 19:28:20 43° NE 19:31:56 28° E
Cosmos 1782 Rocket 4.1 19:23:58 10° SSW 19:28:21 62° W 19:32:44 10° N
Meteor 1-19 Rocket 4.1 19:23:51 10° N 19:29:25 85° E 19:34:59 10° S
Cosmos 1536 4.1 19:26:58 10° SSE 19:34:43 - NNE 19:28:49 24° SSE
Cosmos 1331 Rocket 3.9 19:28:15 10° NNW 19:33:35 71° ENE 19:37:34 18° SSE
Meteor 1-11 Rocket 3.6 19:32:38 10° S 19:38:11 74° E 19:43:54 10° NNE
Spot 2 Rocket 3.9 19:37:43 39° E 19:38:14 40° ENE 19:42:57 10° N
Geosat 4.4 19:40:31 39° ESE 19:40:31 39° ESE 19:45:01 10° S
Tsikada Rocket 4.3 19:36:54 10° SSW 19:43:17 73° W 19:49:43 10° N
Cosmos 1943 3.2 19:37:58 10° NNW 19:43:36 61° ENE 19:45:39 38° SE
USA 186 3.4 19:46:05 26° N 19:46:05 26° N 19:47:43 10° N
Gbstr 26 Del rocket 3.0 19:43:24 10° WSW 19:47:06 61° NNW 19:47:47 50° NNE
Cosmos 2251 Rocket 3.4 19:48:21 10° S 19:53:32 67° ESE 19:56:08 30° NNE
Okean 2 Rocket 3.8 19:50:24 10° SSW 19:54:41 52° W 19:59:01 10° N
ARGOS Delta rocket 4.1 19:51:28 10° N 19:56:13 64° WNW 20:00:41 10° SSW
Cosmos 1939 Rocket 3.5 20:01:06 47° N 20:01:06 47° N 20:04:07 10° N
Cosmos 2151 Rocket 3.6 19:59:46 10° S 20:04:15 81° W 20:08:44 10° N
Cosmos 1302 Rocket 3.8 19:59:50 10° NNW 20:05:03 75° ENE 20:05:18 73° E
SeaSat 1 2.5 20:04:38 48° S 20:06:02 77° WSW 20:10:59 10° NNW
COSMOS 2455 3.0 20:07:00 10° SW 20:12:59 70° WNW 20:17:37 18° NNE
USA 215 3.2 20:11:44 38° NE 20:14:33 88° NW 20:21:06 10° SW
Meteor 1-23 Rocket 4.2 20:09:07 10° N 20:14:59 90° E 20:16:31 52° S
Cosmos 2279 Rocket 3.8 20:13:28 10° N 20:19:43 72° E 20:19:44 72° E
Envisat 4.4 20:22:55 10° SSW 20:27:33 35° W 20:32:13 10° NNW
Cosmos 2263 Rocket 2.7 20:29:55 10° SW 20:35:22 56° WNW 20:37:36 34° N
ATLAS CENTAUR R/B 3.0 20:32:12 10° NW 20:34:39 33° NW 20:34:39 33° NW
USA 267 3.6 20:48:25 53° N 20:48:25 53° N 20:54:01 10° NW
Resurs 01 Rocket 3.6 20:52:53 27° W 20:52:53 27° W 20:56:10 10° NW
CZ-3C R/B 4.4 20:54:08 10° SSW 21:44:49 - ESE 20:57:13 22° S
CZ-4C R/B 3.5 21:10:05 10° NW 21:17:09 51° WSW 21:17:10 51° WSW
